Weather History for KFFO - July, 2013

Change the Weather History Date:

Saturday, July 20, 2013

  Actual Average Record
Temperature  
Mean Temperature 78 °F -  
Max Temperature 86 °F 82 °F 95 °F (2011)
Min Temperature 69 °F 61 °F 53 °F (1997)
Cooling Degree Days 12    
Growing Degree Days 28 (Base 50)    
Moisture  
Dew Point 70 °F    
Average Humidity 82    
Maximum Humidity 95    
Minimum Humidity 66    
Precipitation  
Precipitation 0.07 in - - ()
Sea Level Pressure  
Sea Level Pressure 29.90 in    
Wind  
Wind Speed 9 mph (SW)    
Max Wind Speed 23 mph    
Max Gust Speed 33 mph    
Visibility 9 miles    
Events Rain , Thunderstorm    
Averages and records for this station are not official NWS values.
T = Trace of Precipitation, MM = Missing Value Source: NWS Daily Summary

Daily Weather History Graph

Daily Weather History Graph

Search for Another Location

Airport or City:

Trip Planner

Search our weather history database for the weather conditions in past years. The results will help you decide how hot, cold, wet, or windy it might be!

Date:

Astronomy

Jul. 20, 2013 Rise Set
Actual Time 6:24 AM EDT 9:00 PM EDT
Civil Twilight 5:53 AM EDT 9:31 PM EDT
Nautical Twilight 5:14 AM EDT 10:10 PM EDT
Astronomical Twilight 4:30 AM EDT 10:53 PM EDT
Moon 7:02 PM EDT (7/20) 4:03 AM EDT (7/20)
Length of Visible Light 15h 37m
Length of Day
14h 35m
Waxing Gibbous, 93% of the Moon is Illuminated
Jul 20
Waxing Gibbous
Jul 22
Full
Jul 29
Last Quarter
Aug 6
New
Aug 14
First Quarter

Hourly Weather History & Observations

Time (EDT) Temp. Heat Index Dew Point Humidity Pressure Visibility Wind Dir Wind Speed Gust Speed Precip Events Conditions
12:58 AM 77.9 °F - 73.6 °F 86% 29.92 in 10.0 mi SSW 9.2 mph - N/A   Clear
1:58 AM 78.3 °F - 72.3 °F 82% 29.90 in 10.0 mi SW 12.7 mph - N/A   Clear
2:58 AM 77.5 °F - 71.4 °F 81% 29.88 in 10.0 mi SSW 12.7 mph - N/A   Clear
3:58 AM 76.5 °F - 70.9 °F 83% 29.87 in 10.0 mi SW 10.4 mph - N/A   Clear
4:58 AM 75.6 °F - 70.5 °F 84% 29.85 in 10.0 mi SW 12.7 mph - N/A   Clear
5:58 AM 75.2 °F - 70.7 °F 86% 29.85 in 10.0 mi SW 10.4 mph - N/A   Partly Cloudy
6:58 AM 74.7 °F - 70.5 °F 87% 29.89 in 10.0 mi SSW 10.4 mph - N/A   Partly Cloudy
7:58 AM 77.0 °F - 71.2 °F 82% 29.89 in 10.0 mi SSW 12.7 mph - N/A   Partly Cloudy
8:58 AM 78.3 °F - 71.2 °F 79% 29.89 in 10.0 mi SW 15.0 mph - N/A   Mostly Cloudy
9:58 AM 80.4 °F 84.5 °F 72.1 °F 76% 29.90 in 10.0 mi SW 12.7 mph - N/A   Scattered Clouds
10:58 AM 83.3 °F 89.0 °F 72.7 °F 70% 29.90 in 10.0 mi SW 9.2 mph - N/A   Mostly Cloudy
11:20 AM 84.2 °F 90.9 °F 73.4 °F 70% 29.90 in 10.0 mi WSW 12.7 mph - N/A   Mostly Cloudy
11:38 AM 84.2 °F 90.9 °F 73.4 °F 70% 29.90 in 10.0 mi SW 12.7 mph - N/A   Mostly Cloudy
11:56 AM 86.0 °F 93.4 °F 73.4 °F 66% 29.91 in 10.0 mi WSW 11.5 mph - N/A Thunderstorm Overcast
11:58 AM 85.8 °F 93.4 °F 73.8 °F 67% 29.91 in 10.0 mi West 11.5 mph - N/A Thunderstorm Overcast
12:09 PM 82.4 °F 86.3 °F 69.8 °F 66% 29.94 in 10.0 mi NW 23.0 mph 33.4 mph N/A Thunderstorm Thunderstorm
12:10 PM 78.8 °F - 68.0 °F 69% 29.95 in 10.0 mi NW 21.9 mph 33.4 mph N/A Thunderstorm Thunderstorm
12:13 PM 77.0 °F - 68.0 °F 74% 29.94 in 10.0 mi NW 20.7 mph 33.4 mph N/A Rain , Thunderstorm Light Thunderstorms and Rain
12:24 PM 71.6 °F - 68.0 °F 88% 29.95 in 7.0 mi NNW 6.9 mph - N/A Rain , Thunderstorm Light Thunderstorms and Rain
12:32 PM 69.8 °F - 66.2 °F 88% 29.95 in 3.0 mi WSW 3.5 mph - N/A Rain , Thunderstorm Thunderstorms and Rain
12:34 PM 69.8 °F - 66.2 °F 88% 29.95 in 2.0 mi WSW 5.8 mph - N/A Rain , Thunderstorm Thunderstorms and Rain
12:51 PM 69.8 °F - 68.0 °F 94% 29.92 in 10.0 mi North 4.6 mph - N/A Thunderstorm Thunderstorm
12:58 PM 71.6 °F - 68.0 °F 88% 29.91 in 10.0 mi East 8.1 mph - 0.03 in Thunderstorm Thunderstorm
1:00 PM 71.6 °F - 68.0 °F 88% 29.91 in 10.0 mi East 5.8 mph - N/A Thunderstorm Mostly Cloudy
1:32 PM 73.4 °F - 68.0 °F 83% 29.92 in 10.0 mi North 4.6 mph - N/A   Mostly Cloudy
1:58 PM 74.5 °F - 67.5 °F 79% 29.90 in 10.0 mi East 4.6 mph - 0.01 in   Scattered Clouds
2:16 PM 77.0 °F - 68.0 °F 74% 29.88 in 10.0 mi Calm Calm - N/A Thunderstorm Mostly Cloudy
2:21 PM 77.0 °F - 68.0 °F 74% 29.88 in 10.0 mi Variable 1.2 mph - N/A Thunderstorm Thunderstorm
2:22 PM 77.0 °F - 68.0 °F 74% 29.90 in 10.0 mi Variable 1.2 mph - N/A   Partly Cloudy
2:26 PM 77.0 °F - 68.0 °F 74% 29.89 in 10.0 mi Variable 2.3 mph - N/A Thunderstorm Thunderstorm
2:51 PM 75.2 °F - 68.0 °F 78% 29.89 in 10.0 mi West 5.8 mph - N/A Rain , Thunderstorm Light Thunderstorms and Rain
2:58 PM 74.8 °F - 69.3 °F 83% 29.89 in 10.0 mi SSW 2.3 mph - 0.00 in Rain , Thunderstorm Light Thunderstorms and Rain
3:12 PM 77.0 °F - 69.8 °F 78% 29.87 in 10.0 mi Variable 5.8 mph - N/A Thunderstorm Thunderstorm
3:28 PM 77.0 °F - 69.8 °F 78% 29.89 in 10.0 mi WSW 3.5 mph - N/A Thunderstorm Thunderstorm
3:45 PM 77.0 °F - 71.6 °F 83% 29.90 in 10.0 mi West 6.9 mph - N/A Thunderstorm Thunderstorm
3:55 PM 75.2 °F - 71.6 °F 89% 29.88 in 7.0 mi WSW 8.1 mph - N/A Rain , Thunderstorm Light Thunderstorms and Rain
3:58 PM 75.9 °F - 70.7 °F 84% 29.89 in 6.0 mi West 6.9 mph - 0.00 in Rain , Thunderstorm Light Thunderstorms and Rain
4:03 PM 75.2 °F - 71.6 °F 89% 29.89 in 7.0 mi WSW 9.2 mph - N/A Rain , Thunderstorm Light Thunderstorms and Rain
4:58 PM 72.0 °F - 70.0 °F 93% 29.91 in 10.0 mi South 4.6 mph - 0.02 in Rain , Thunderstorm Light Thunderstorms and Rain
5:15 PM 71.6 °F - 69.8 °F 94% 29.88 in 10.0 mi SE 5.8 mph - N/A Rain , Thunderstorm Light Rain
5:25 PM 73.4 °F - 69.8 °F 88% 29.88 in 10.0 mi ESE 2.3 mph - N/A   Mostly Cloudy
5:58 PM 73.9 °F - 69.8 °F 87% 29.89 in 10.0 mi SW 5.8 mph - 0.01 in   Overcast
6:58 PM 73.0 °F - 70.0 °F 90% 29.91 in 10.0 mi SSE 8.1 mph - N/A   Overcast
7:58 PM 72.5 °F - 69.8 °F 91% 29.89 in 10.0 mi SSW 4.6 mph - N/A   Overcast
8:58 PM 72.0 °F - 69.6 °F 92% 29.91 in 10.0 mi NW 3.5 mph - N/A   Mostly Cloudy
9:58 PM 71.4 °F - 70.0 °F 95% 29.92 in 10.0 mi South 5.8 mph - N/A   Mostly Cloudy
10:58 PM 72.1 °F - 70.2 °F 93% 29.93 in 10.0 mi SW 3.5 mph - N/A   Mostly Cloudy
11:58 PM 72.0 °F - 69.6 °F 92% 29.93 in 10.0 mi SW 2.3 mph - N/A   Mostly Cloudy